Time,TemperatureF,DewpointF,PressureIn,WindDirection,WindDirectionDegrees,WindSpeedMPH,WindSpeedGustMPH,Humidity,HourlyPrecipIn,Conditions,Clouds,dailyrainin,SoftwareType,DateUTC
2013-05-17 00:01:00,67.6,55.4,29.99,NW,321,0.0,1.0,65,0.00,,,0.00,Wunderground v.1.15,2013-05-17 04:01:00,
2013-05-17 00:06:00,67.4,54.4,29.99,NW,321,0.0,3.0,63,0.00,,,0.00,Wunderground v.1.15,2013-05-17 04:06:00,
2013-05-17 00:11:00,67.4,53.9,29.99,NW,321,0.0,3.0,62,0.00,,,0.00,Wunderground v.1.15,2013-05-17 04:11:00,
2013-05-17 00:16:00,67.4,53.9,29.99,NW,321,1.0,3.0,62,0.00,,,0.00,Wunderground v.1.15,2013-05-17 04:16:00,
2013-05-17 00:21:00,67.4,53.9,29.99,NW,321,0.0,0.0,62,0.00,,,0.00,Wunderground v.1.15,2013-05-17 04:21:00,
2013-05-17 00:26:00,67.3,54.3,29.99,NW,321,0.0,3.0,63,0.00,,,0.00,Wunderground v.1.15,2013-05-17 04:26:00,
2013-05-17 00:31:00,67.1,54.1,29.99,NW,321,0.0,3.0,63,0.00,,,0.00,Wunderground v.1.15,2013-05-17 04:31:00,
2013-05-17 00:36:00,66.9,53.9,30.00,NW,321,0.0,3.0,63,0.00,,,0.00,Wunderground v.1.15,2013-05-17 04:36:00,
2013-05-17 00:41:00,66.8,53.8,30.00,NW,321,1.0,3.0,63,0.00,,,0.00,Wunderground v.1.15,2013-05-17 04:41:00,
2013-05-17 00:46:00,66.9,53.5,30.00,NW,321,2.0,4.0,62,0.00,,,0.00,Wunderground v.1.15,2013-05-17 04:46:00,
2013-05-17 00:51:00,67.1,53.2,29.99,NW,321,0.0,3.0,61,0.00,,,0.00,Wunderground v.1.15,2013-05-17 04:51:00,
2013-05-17 00:57:00,66.9,53.5,29.99,NW,321,0.0,5.0,62,0.00,,,0.00,Wunderground v.1.15,2013-05-17 04:57:00,
2013-05-17 01:02:00,66.8,53.8,29.99,NW,321,0.0,3.0,63,0.00,,,0.00,Wunderground v.1.15,2013-05-17 05:02:00,
2013-05-17 01:06:00,66.6,53.6,29.99,NW,321,0.0,3.0,63,0.00,,,0.00,Wunderground v.1.15,2013-05-17 05:06:00,
2013-05-17 01:12:00,66.4,53.4,29.99,NW,321,0.0,3.0,63,0.00,,,0.00,Wunderground v.1.15,2013-05-17 05:12:00,
2013-05-17 01:17:00,66.1,52.7,29.99,NW,321,3.0,4.0,62,0.00,,,0.00,Wunderground v.1.15,2013-05-17 05:17:00,
2013-05-17 01:22:00,66.1,52.7,30.00,NW,321,0.0,3.0,62,0.00,,,0.00,Wunderground v.1.15,2013-05-17 05:22:00,
2013-05-17 01:27:00,66.1,52.7,30.00,WNW,283,4.0,5.0,62,0.00,,,0.00,Wunderground v.1.15,2013-05-17 05:27:00,
2013-05-17 01:32:00,66.0,52.6,30.00,WNW,283,0.0,3.0,62,0.00,,,0.00,Wunderground v.1.15,2013-05-17 05:32:00,
2013-05-17 01:37:00,66.0,52.2,29.99,WNW,285,0.0,5.0,61,0.00,,,0.00,Wunderground v.1.15,2013-05-17 05:37:00,
2013-05-17 01:42:00,66.1,52.7,29.99,WNW,285,3.0,3.0,62,0.00,,,0.00,Wunderground v.1.15,2013-05-17 05:42:00,
2013-05-17 01:47:00,66.1,52.3,29.99,WNW,285,2.0,4.0,61,0.00,,,0.00,Wunderground v.1.15,2013-05-17 05:47:00,
2013-05-17 01:52:00,66.1,52.3,29.99,WNW,285,1.0,1.0,61,0.00,,,0.00,Wunderground v.1.15,2013-05-17 05:52:00,
2013-05-17 01:57:00,66.1,52.3,29.99,WNW,288,0.0,5.0,61,0.00,,,0.00,Wunderground v.1.15,2013-05-17 05:57:00,
2013-05-17 02:02:00,66.1,52.3,29.99,WNW,288,0.0,3.0,61,0.00,,,0.00,Wunderground v.1.15,2013-05-17 06:02:00,
2013-05-17 02:07:00,66.1,52.3,29.99,WNW,285,0.0,5.0,61,0.00,,,0.00,Wunderground v.1.15,2013-05-17 06:07:00,
2013-05-17 02:12:00,66.1,52.7,29.99,WNW,286,0.0,2.0,62,0.00,,,0.00,Wunderground v.1.15,2013-05-17 06:12:00,
2013-05-17 02:17:00,66.0,52.6,29.99,WNW,286,0.0,4.0,62,0.00,,,0.00,Wunderground v.1.15,2013-05-17 06:17:00,
2013-05-17 02:22:00,66.0,52.6,29.99,WNW,285,0.0,1.0,62,0.00,,,0.00,Wunderground v.1.15,2013-05-17 06:22:00,
2013-05-17 02:27:00,65.8,52.4,29.99,WNW,285,0.0,1.0,62,0.00,,,0.00,Wunderground v.1.15,2013-05-17 06:27:00,
2013-05-17 02:32:00,65.8,52.9,29.99,WNW,285,0.0,1.0,63,0.00,,,0.00,Wunderground v.1.15,2013-05-17 06:32:00,
2013-05-17 02:37:00,65.6,53.1,29.98,WNW,285,0.0,1.0,64,0.00,,,0.00,Wunderground v.1.15,2013-05-17 06:37:00,
2013-05-17 02:42:00,65.6,53.1,29.98,WNW,285,0.0,0.0,64,0.00,,,0.00,Wunderground v.1.15,2013-05-17 06:42:00,
2013-05-17 02:47:00,65.5,53.0,29.98,WNW,285,0.0,1.0,64,0.00,,,0.00,Wunderground v.1.15,2013-05-17 06:47:00,
2013-05-17 02:52:00,65.3,52.8,29.99,WNW,285,0.0,0.0,64,0.00,,,0.00,Wunderground v.1.15,2013-05-17 06:52:00,
2013-05-17 02:57:00,65.3,52.8,29.99,WNW,285,0.0,1.0,64,0.00,,,0.00,Wunderground v.1.15,2013-05-17 06:57:00,
2013-05-17 03:02:00,65.3,53.2,29.99,WNW,285,0.0,0.0,65,0.00,,,0.00,Wunderground v.1.15,2013-05-17 07:02:00,
2013-05-17 03:07:00,65.0,53.4,29.99,WNW,285,0.0,0.0,66,0.00,,,0.00,Wunderground v.1.15,2013-05-17 07:07:00,
2013-05-17 03:12:00,64.8,53.2,29.99,WNW,285,0.0,3.0,66,0.00,,,0.00,Wunderground v.1.15,2013-05-17 07:12:00,
2013-05-17 03:17:00,64.7,53.5,29.99,WNW,285,0.0,3.0,67,0.00,,,0.00,Wunderground v.1.15,2013-05-17 07:17:00,
2013-05-17 03:22:00,64.7,53.1,29.99,WNW,285,3.0,4.0,66,0.00,,,0.00,Wunderground v.1.15,2013-05-17 07:22:00,
2013-05-17 03:27:00,65.0,53.8,29.99,WNW,285,0.0,4.0,67,0.00,,,0.00,Wunderground v.1.15,2013-05-17 07:27:00,
2013-05-17 03:32:00,65.2,53.6,29.99,WNW,285,0.0,3.0,66,0.00,,,0.00,Wunderground v.1.15,2013-05-17 07:32:00,
2013-05-17 03:37:00,65.3,53.2,29.99,WNW,285,0.0,4.0,65,0.00,,,0.00,Wunderground v.1.15,2013-05-17 07:37:00,
2013-05-17 03:42:00,65.5,53.8,29.99,WNW,285,0.0,2.0,66,0.00,,,0.00,Wunderground v.1.15,2013-05-17 07:42:00,
2013-05-17 03:47:00,65.6,53.5,29.99,WNW,285,0.0,4.0,65,0.00,,,0.00,Wunderground v.1.15,2013-05-17 07:47:00,
2013-05-17 03:52:00,65.6,53.9,29.99,WNW,285,0.0,1.0,66,0.00,,,0.00,Wunderground v.1.15,2013-05-17 07:52:00,
2013-05-17 03:57:00,65.6,53.9,29.99,WNW,285,0.0,4.0,66,0.00,,,0.00,Wunderground v.1.15,2013-05-17 07:57:00,
2013-05-17 04:02:00,65.5,53.8,29.99,WNW,285,0.0,1.0,66,0.00,,,0.00,Wunderground v.1.15,2013-05-17 08:02:00,
2013-05-17 04:07:00,65.6,53.5,29.99,WNW,285,3.0,3.0,65,0.00,,,0.00,Wunderground v.1.15,2013-05-17 08:07:00,
2013-05-17 04:12:00,65.8,53.7,29.99,WNW,285,0.0,3.0,65,0.00,,,0.00,Wunderground v.1.15,2013-05-17 08:12:00,
2013-05-17 04:17:00,66.0,53.9,29.99,WNW,285,0.0,3.0,65,0.00,,,0.00,Wunderground v.1.15,2013-05-17 08:17:00,
2013-05-17 04:22:00,66.1,54.0,29.99,WNW,285,0.0,3.0,65,0.00,,,0.00,Wunderground v.1.15,2013-05-17 08:22:00,
2013-05-17 04:27:00,66.3,54.2,29.99,WNW,285,1.0,3.0,65,0.00,,,0.00,Wunderground v.1.15,2013-05-17 08:27:00,
2013-05-17 04:32:00,66.3,54.2,29.99,WNW,285,0.0,1.0,65,0.00,,,0.00,Wunderground v.1.15,2013-05-17 08:32:00,
2013-05-17 04:37:00,66.4,54.3,29.99,WNW,285,0.0,1.0,65,0.00,,,0.00,Wunderground v.1.15,2013-05-17 08:37:00,
2013-05-17 04:42:00,66.4,54.3,29.99,WNW,285,0.0,0.0,65,0.00,,,0.00,Wunderground v.1.15,2013-05-17 08:42:00,
2013-05-17 04:47:00,66.4,54.7,29.99,WNW,285,0.0,1.0,66,0.00,,,0.00,Wunderground v.1.15,2013-05-17 08:47:00,
2013-05-17 04:52:00,66.3,54.6,30.00,WNW,285,0.0,0.0,66,0.00,,,0.00,Wunderground v.1.15,2013-05-17 08:52:00,
2013-05-17 04:57:00,66.1,54.4,30.00,WNW,285,0.0,1.0,66,0.00,,,0.00,Wunderground v.1.15,2013-05-17 08:57:00,
2013-05-17 05:02:00,66.0,54.7,30.00,WNW,285,0.0,0.0,67,0.00,,,0.00,Wunderground v.1.15,2013-05-17 09:02:00,
2013-05-17 05:07:00,65.6,54.8,30.00,WNW,285,0.0,0.0,68,0.00,,,0.00,Wunderground v.1.15,2013-05-17 09:07:00,
2013-05-17 05:12:00,65.5,55.1,30.00,WNW,285,0.0,0.0,69,0.00,,,0.00,Wunderground v.1.15,2013-05-17 09:12:00,
2013-05-17 05:17:00,65.3,54.5,30.00,WNW,285,0.0,1.0,68,0.00,,,0.00,Wunderground v.1.15,2013-05-17 09:17:00,
2013-05-17 05:22:00,65.2,54.4,30.01,WNW,285,0.0,0.0,68,0.00,,,0.00,Wunderground v.1.15,2013-05-17 09:22:00,
2013-05-17 05:27:00,65.2,55.2,30.01,WNW,285,0.0,0.0,70,0.00,,,0.00,Wunderground v.1.15,2013-05-17 09:27:00,
2013-05-17 05:32:00,65.0,55.0,30.01,WNW,285,0.0,0.0,70,0.00,,,0.00,Wunderground v.1.15,2013-05-17 09:32:00,
2013-05-17 05:37:00,65.0,54.6,30.01,WNW,285,0.0,0.0,69,0.00,,,0.00,Wunderground v.1.15,2013-05-17 09:37:00,
2013-05-17 05:42:00,65.0,55.0,30.01,WNW,285,0.0,0.0,70,0.00,,,0.00,Wunderground v.1.15,2013-05-17 09:42:00,
2013-05-17 05:47:00,64.8,55.2,30.01,WNW,285,0.0,0.0,71,0.00,,,0.00,Wunderground v.1.15,2013-05-17 09:47:00,
2013-05-17 05:52:00,64.7,54.3,30.01,WNW,285,0.0,0.0,69,0.00,,,0.00,Wunderground v.1.15,2013-05-17 09:52:00,
2013-05-17 05:57:00,64.5,54.1,30.01,WNW,285,0.0,0.0,69,0.00,,,0.00,Wunderground v.1.15,2013-05-17 09:57:00,
2013-05-17 06:02:00,64.5,54.5,30.01,WNW,285,0.0,0.0,70,0.00,,,0.00,Wunderground v.1.15,2013-05-17 10:02:00,
2013-05-17 06:07:00,64.5,54.9,30.01,WNW,285,0.0,0.0,71,0.00,,,0.00,Wunderground v.1.15,2013-05-17 10:07:00,
2013-05-17 06:12:00,64.3,54.7,30.01,WNW,285,0.0,0.0,71,0.00,,,0.00,Wunderground v.1.15,2013-05-17 10:12:00,
2013-05-17 06:17:00,64.2,55.4,30.01,WNW,285,0.0,0.0,73,0.00,,,0.00,Wunderground v.1.15,2013-05-17 10:17:00,
2013-05-17 06:22:00,64.0,55.2,30.02,WNW,285,0.0,0.0,73,0.00,,,0.00,Wunderground v.1.15,2013-05-17 10:22:00,
2013-05-17 06:27:00,63.9,55.4,30.02,WNW,285,0.0,0.0,74,0.00,,,0.00,Wunderground v.1.15,2013-05-17 10:27:00,
2013-05-17 06:32:00,63.9,55.4,30.02,WNW,285,0.0,0.0,74,0.00,,,0.00,Wunderground v.1.15,2013-05-17 10:32:00,
2013-05-17 06:37:00,63.7,54.9,30.03,WNW,285,0.0,0.0,73,0.00,,,0.00,Wunderground v.1.15,2013-05-17 10:37:00,
2013-05-17 06:42:00,63.7,54.9,30.03,WNW,285,0.0,0.0,73,0.00,,,0.00,Wunderground v.1.15,2013-05-17 10:42:00,
2013-05-17 06:47:00,63.7,54.9,30.03,WNW,285,0.0,0.0,73,0.00,,,0.00,Wunderground v.1.15,2013-05-17 10:47:00,
2013-05-17 06:52:00,63.7,54.9,30.03,WNW,285,0.0,0.0,73,0.00,,,0.00,Wunderground v.1.15,2013-05-17 10:52:00,
2013-05-17 06:57:00,63.9,55.1,30.03,WNW,285,0.0,0.0,73,0.00,,,0.00,Wunderground v.1.15,2013-05-17 10:57:00,
2013-05-17 07:02:00,63.9,55.1,30.03,WNW,285,0.0,0.0,73,0.00,,,0.00,Wunderground v.1.15,2013-05-17 11:02:00,
2013-05-17 07:07:00,63.9,55.1,30.03,WNW,285,0.0,0.0,73,0.00,,,0.00,Wunderground v.1.15,2013-05-17 11:07:00,
2013-05-17 07:12:00,63.9,55.1,30.03,WNW,285,0.0,0.0,73,0.00,,,0.00,Wunderground v.1.15,2013-05-17 11:12:00,
2013-05-17 07:17:00,63.7,55.3,30.03,WNW,285,0.0,0.0,74,0.00,,,0.00,Wunderground v.1.15,2013-05-17 11:17:00,
2013-05-17 07:22:00,63.7,55.6,30.04,WNW,285,0.0,0.0,75,0.00,,,0.00,Wunderground v.1.15,2013-05-17 11:22:00,
2013-05-17 07:27:00,63.7,56.4,30.04,WNW,285,0.0,0.0,77,0.00,,,0.00,Wunderground v.1.15,2013-05-17 11:27:00,
2013-05-17 07:32:00,63.7,56.4,30.04,WNW,285,0.0,0.0,77,0.00,,,0.00,Wunderground v.1.15,2013-05-17 11:32:00,
2013-05-17 07:37:00,63.7,57.1,30.04,WNW,285,0.0,0.0,79,0.00,,,0.00,Wunderground v.1.15,2013-05-17 11:37:00,
2013-05-17 07:42:00,63.7,57.1,30.04,WNW,285,0.0,0.0,79,0.00,,,0.00,Wunderground v.1.15,2013-05-17 11:42:00,
2013-05-17 07:47:00,63.5,57.2,30.04,WNW,285,0.0,1.0,80,0.00,,,0.00,Wunderground v.1.15,2013-05-17 11:47:00,
2013-05-17 07:52:00,63.5,57.2,30.05,WNW,285,0.0,0.0,80,0.00,,,0.00,Wunderground v.1.15,2013-05-17 11:52:00,
2013-05-17 07:57:00,63.5,57.6,30.05,NE,40,0.0,0.0,81,0.00,,,0.00,Wunderground v.1.15,2013-05-17 11:57:00,
2013-05-17 08:02:00,63.7,57.8,30.05,NE,40,0.0,0.0,81,0.00,,,0.00,Wunderground v.1.15,2013-05-17 12:02:00,
2013-05-17 08:07:00,63.7,57.8,30.05,NE,40,0.0,0.0,81,0.00,,,0.00,Wunderground v.1.15,2013-05-17 12:07:00,
2013-05-17 08:12:00,63.7,57.8,30.05,NE,40,0.0,0.0,81,0.00,,,0.00,Wunderground v.1.15,2013-05-17 12:12:00,
2013-05-17 08:17:00,63.9,58.0,30.05,NE,41,0.0,0.0,81,0.00,,,0.00,Wunderground v.1.15,2013-05-17 12:17:00,
2013-05-17 08:22:00,63.9,58.0,30.05,NE,40,0.0,0.0,81,0.00,,,0.00,Wunderground v.1.15,2013-05-17 12:22:00,
2013-05-17 08:27:00,63.9,58.3,30.05,NE,40,0.0,0.0,82,0.00,,,0.00,Wunderground v.1.15,2013-05-17 12:27:00,
2013-05-17 08:32:00,64.0,58.1,30.05,NE,40,0.0,0.0,81,0.00,,,0.00,Wunderground v.1.15,2013-05-17 12:32:00,
2013-05-17 08:37:00,64.0,58.1,30.05,NE,40,0.0,0.0,81,0.00,,,0.00,Wunderground v.1.15,2013-05-17 12:37:00,
2013-05-17 08:42:00,64.0,57.7,30.05,NE,40,0.0,0.0,80,0.00,,,0.00,Wunderground v.1.15,2013-05-17 12:42:00,
2013-05-17 08:47:00,64.0,58.1,30.05,NE,40,0.0,0.0,81,0.00,,,0.00,Wunderground v.1.15,2013-05-17 12:47:00,
2013-05-17 08:52:00,64.2,58.2,30.05,NE,40,0.0,0.0,81,0.00,,,0.00,Wunderground v.1.15,2013-05-17 12:52:00,
2013-05-17 08:57:00,64.2,57.9,30.05,NE,40,0.0,0.0,80,0.00,,,0.00,Wunderground v.1.15,2013-05-17 12:57:00,
2013-05-17 09:02:00,64.3,58.0,30.05,NE,40,0.0,0.0,80,0.00,,,0.00,Wunderground v.1.15,2013-05-17 13:02:00,
2013-05-17 09:07:00,64.5,58.5,30.06,NE,40,0.0,0.0,81,0.00,,,0.00,Wunderground v.1.15,2013-05-17 13:07:00,
2013-05-17 09:12:00,64.7,58.7,30.06,NE,40,0.0,0.0,81,0.00,,,0.00,Wunderground v.1.15,2013-05-17 13:12:00,
2013-05-17 09:17:00,64.7,58.7,30.06,NE,40,0.0,0.0,81,0.00,,,0.00,Wunderground v.1.15,2013-05-17 13:17:00,
2013-05-17 09:22:00,64.8,58.8,30.07,NE,40,0.0,0.0,81,0.00,,,0.00,Wunderground v.1.15,2013-05-17 13:22:00,
2013-05-17 09:27:00,65.0,59.4,30.07,NE,40,0.0,0.0,82,0.00,,,0.00,Wunderground v.1.15,2013-05-17 13:27:00,
2013-05-17 09:32:00,65.0,59.0,30.07,NE,40,0.0,0.0,81,0.00,,,0.00,Wunderground v.1.15,2013-05-17 13:32:00,
2013-05-17 09:37:00,65.0,59.4,30.07,NE,41,0.0,0.0,82,0.00,,,0.00,Wunderground v.1.15,2013-05-17 13:37:00,
2013-05-17 09:42:00,65.2,59.9,30.07,NE,40,0.0,1.0,83,0.00,,,0.00,Wunderground v.1.15,2013-05-17 13:42:00,
2013-05-17 09:47:00,65.2,59.9,30.07,NE,40,1.0,1.0,83,0.00,,,0.00,Wunderground v.1.15,2013-05-17 13:47:00,
2013-05-17 09:52:00,65.0,60.0,30.07,NE,41,0.0,0.0,84,0.00,,,0.00,Wunderground v.1.15,2013-05-17 13:52:00,
2013-05-17 09:57:00,64.8,58.5,30.07,NE,40,0.0,3.0,80,0.00,,,0.00,Wunderground v.1.15,2013-05-17 13:57:00,
2013-05-17 10:02:00,65.0,59.0,30.07,NE,40,0.0,0.0,81,0.00,,,0.00,Wunderground v.1.15,2013-05-17 14:02:00,
2013-05-17 10:07:00,65.0,59.4,30.07,NE,40,0.0,0.0,82,0.00,,,0.00,Wunderground v.1.15,2013-05-17 14:07:00,
2013-05-17 10:12:00,65.0,59.7,30.07,NE,40,0.0,0.0,83,0.00,,,0.00,Wunderground v.1.15,2013-05-17 14:12:00,
2013-05-17 10:17:00,65.2,59.2,30.07,NE,40,0.0,1.0,81,0.00,,,0.00,Wunderground v.1.15,2013-05-17 14:17:00,
2013-05-17 10:22:00,65.2,59.2,30.07,NE,40,0.0,1.0,81,0.00,,,0.00,Wunderground v.1.15,2013-05-17 14:22:00,
2013-05-17 10:27:00,65.3,58.6,30.07,NE,41,0.0,1.0,79,0.00,,,0.00,Wunderground v.1.15,2013-05-17 14:27:00,
2013-05-17 10:32:00,65.3,58.3,30.07,NE,40,0.0,0.0,78,0.00,,,0.00,Wunderground v.1.15,2013-05-17 14:32:00,
2013-05-17 10:37:00,65.2,58.2,30.08,NE,40,0.0,1.0,78,0.00,,,0.00,Wunderground v.1.15,2013-05-17 14:37:00,
2013-05-17 10:42:00,65.0,59.4,30.08,NE,40,0.0,1.0,82,0.00,,,0.00,Wunderground v.1.15,2013-05-17 14:42:00,
2013-05-17 10:47:00,65.0,59.0,30.08,NE,40,0.0,1.0,81,0.00,,,0.00,Wunderground v.1.15,2013-05-17 14:47:00,
2013-05-17 10:52:00,65.3,59.3,30.08,NE,40,0.0,1.0,81,0.00,,,0.00,Wunderground v.1.15,2013-05-17 14:52:00,
2013-05-17 10:57:00,65.8,58.7,30.08,NE,40,1.0,3.0,78,0.00,,,0.00,Wunderground v.1.15,2013-05-17 14:57:00,
2013-05-17 11:02:00,66.3,59.2,30.08,NE,41,0.0,1.0,78,0.00,,,0.00,Wunderground v.1.15,2013-05-17 15:02:00,
2013-05-17 11:07:00,66.4,59.3,30.08,NE,40,0.0,3.0,78,0.00,,,0.00,Wunderground v.1.15,2013-05-17 15:07:00,
2013-05-17 11:12:00,66.6,59.5,30.08,NE,41,3.0,4.0,78,0.00,,,0.00,Wunderground v.1.15,2013-05-17 15:12:00,
2013-05-17 11:17:00,66.4,60.0,30.08,NE,41,0.0,4.0,80,0.00,,,0.00,Wunderground v.1.15,2013-05-17 15:17:00,
2013-05-17 11:22:00,66.9,59.8,30.07,NE,42,2.0,4.0,78,0.00,,,0.00,Wunderground v.1.15,2013-05-17 15:22:00,
2013-05-17 11:27:00,66.6,59.9,30.07,ENE,77,4.0,6.0,79,0.00,,,0.00,Wunderground v.1.15,2013-05-17 15:27:00,
2013-05-17 11:32:00,66.1,59.4,30.07,ENE,77,0.0,3.0,79,0.00,,,0.00,Wunderground v.1.15,2013-05-17 15:32:00,
2013-05-17 11:38:00,65.6,59.3,30.08,ENE,77,0.0,4.0,80,0.00,,,0.00,Wunderground v.1.15,2013-05-17 15:38:00,
2013-05-17 11:43:00,65.5,59.9,30.08,ENE,77,0.0,1.0,82,0.00,,,0.00,Wunderground v.1.15,2013-05-17 15:43:00,
2013-05-17 11:48:00,65.5,59.9,30.08,ENE,77,0.0,1.0,82,0.00,,,0.00,Wunderground v.1.15,2013-05-17 15:48:00,
2013-05-17 11:53:00,65.6,60.3,30.08,ENE,77,0.0,1.0,83,0.00,,,0.00,Wunderground v.1.15,2013-05-17 15:53:00,
2013-05-17 11:58:00,66.1,61.1,30.08,ENE,77,0.0,1.0,84,0.00,,,0.00,Wunderground v.1.15,2013-05-17 15:58:00,
2013-05-17 12:03:00,66.4,59.7,30.08,ENE,77,0.0,1.0,79,0.00,,,0.00,Wunderground v.1.15,2013-05-17 16:03:00,
2013-05-17 12:08:00,67.4,61.4,30.07,ENE,77,0.0,3.0,81,0.00,,,0.00,Wunderground v.1.15,2013-05-17 16:08:00,
2013-05-17 12:13:00,68.4,62.0,30.07,ENE,77,0.0,1.0,80,0.00,,,0.00,Wunderground v.1.15,2013-05-17 16:13:00,
2013-05-17 12:18:00,69.1,60.5,30.07,ENE,77,0.0,1.0,74,0.00,,,0.00,Wunderground v.1.15,2013-05-17 16:18:00,
2013-05-17 12:23:00,69.6,61.7,30.07,East,79,4.0,5.0,76,0.00,,,0.00,Wunderground v.1.15,2013-05-17 16:23:00,
2013-05-17 12:28:00,69.6,61.3,30.07,East,79,3.0,5.0,75,0.00,,,0.00,Wunderground v.1.15,2013-05-17 16:28:00,
2013-05-17 12:33:00,69.4,61.5,30.07,East,86,5.0,6.0,76,0.00,,,0.00,Wunderground v.1.15,2013-05-17 16:33:00,
2013-05-17 12:38:00,69.1,61.2,30.07,East,96,2.0,6.0,76,0.00,,,0.00,Wunderground v.1.15,2013-05-17 16:38:00,
2013-05-17 12:43:00,68.8,60.9,30.07,East,100,2.0,6.0,76,0.00,,,0.00,Wunderground v.1.15,2013-05-17 16:43:00,
2013-05-17 12:48:00,68.8,61.3,30.07,East,100,3.0,6.0,77,0.00,,,0.00,Wunderground v.1.15,2013-05-17 16:48:00,
2013-05-17 12:53:00,68.6,61.5,30.07,East,100,0.0,4.0,78,0.00,,,0.00,Wunderground v.1.15,2013-05-17 16:53:00,
2013-05-17 12:58:00,68.4,61.3,30.07,East,91,2.0,5.0,78,0.00,,,0.00,Wunderground v.1.15,2013-05-17 16:58:00,
2013-05-17 13:03:00,68.3,61.5,30.07,East,91,2.0,5.0,79,0.00,,,0.00,Wunderground v.1.15,2013-05-17 17:03:00,
2013-05-17 13:08:00,68.3,61.5,30.07,East,91,0.0,5.0,79,0.00,,,0.00,Wunderground v.1.15,2013-05-17 17:08:00,
2013-05-17 13:13:00,68.8,62.0,30.07,East,91,3.0,4.0,79,0.00,,,0.00,Wunderground v.1.15,2013-05-17 17:13:00,
2013-05-17 13:18:00,68.9,61.8,30.07,East,96,3.0,5.0,78,0.00,,,0.00,Wunderground v.1.15,2013-05-17 17:18:00,
2013-05-17 13:23:00,69.4,63.0,30.06,East,96,0.0,4.0,80,0.00,,,0.00,Wunderground v.1.15,2013-05-17 17:23:00,
2013-05-17 13:28:00,69.9,62.0,30.06,East,96,0.0,6.0,76,0.00,,,0.00,Wunderground v.1.15,2013-05-17 17:28:00,
2013-05-17 13:33:00,70.3,63.1,30.06,ESE,105,6.0,6.0,78,0.00,,,0.00,Wunderground v.1.15,2013-05-17 17:33:00,
2013-05-17 13:38:00,70.6,62.3,30.06,ESE,107,0.0,7.0,75,0.00,,,0.00,Wunderground v.1.15,2013-05-17 17:38:00,
2013-05-17 13:43:00,70.8,62.5,30.06,East,95,5.0,6.0,75,0.00,,,0.00,Wunderground v.1.15,2013-05-17 17:43:00,
2013-05-17 13:48:00,70.9,62.6,30.06,East,89,4.0,6.0,75,0.00,,,0.00,Wunderground v.1.15,2013-05-17 17:48:00,
2013-05-17 13:53:00,70.9,62.2,30.05,East,94,2.0,4.0,74,0.00,,,0.00,Wunderground v.1.15,2013-05-17 17:53:00,
2013-05-17 13:58:00,71.1,63.1,30.05,East,98,5.0,5.0,76,0.00,,,0.00,Wunderground v.1.15,2013-05-17 17:58:00,
2013-05-17 14:03:00,71.8,63.4,30.05,ESE,107,7.0,9.0,75,0.00,,,0.00,Wunderground v.1.15,2013-05-17 18:03:00,
2013-05-17 14:08:00,71.5,60.8,30.05,ESE,115,5.0,9.0,69,0.00,,,0.00,Wunderground v.1.15,2013-05-17 18:08:00,
2013-05-17 14:13:00,71.6,61.7,30.05,ESE,115,5.0,7.0,71,0.00,,,0.00,Wunderground v.1.15,2013-05-17 18:13:00,
2013-05-17 14:18:00,72.0,62.1,30.05,ESE,115,5.0,7.0,71,0.00,,,0.00,Wunderground v.1.15,2013-05-17 18:18:00,
2013-05-17 14:23:00,72.1,61.4,30.05,ESE,103,0.0,2.0,69,0.00,,,0.00,Wunderground v.1.15,2013-05-17 18:23:00,
2013-05-17 14:28:00,72.1,63.0,30.05,ESE,103,3.0,9.0,73,0.00,,,0.00,Wunderground v.1.15,2013-05-17 18:28:00,
2013-05-17 14:33:00,72.1,61.0,30.05,ESE,103,0.0,1.0,68,0.00,,,0.00,Wunderground v.1.15,2013-05-17 18:33:00,
2013-05-17 14:38:00,72.1,62.6,30.04,ESE,103,0.0,5.0,72,0.00,,,0.00,Wunderground v.1.15,2013-05-17 18:38:00,
2013-05-17 14:43:00,72.1,61.8,30.04,East,99,0.0,4.0,70,0.00,,,0.00,Wunderground v.1.15,2013-05-17 18:43:00,
2013-05-17 14:48:00,72.0,62.5,30.04,ESE,102,0.0,6.0,72,0.00,,,0.00,Wunderground v.1.15,2013-05-17 18:48:00,
2013-05-17 14:53:00,72.1,63.0,30.04,ESE,102,0.0,5.0,73,0.00,,,0.00,Wunderground v.1.15,2013-05-17 18:53:00,
2013-05-17 14:58:00,72.0,61.7,30.04,ESE,103,3.0,6.0,70,0.00,,,0.00,Wunderground v.1.15,2013-05-17 18:58:00,
2013-05-17 15:03:00,71.8,62.7,30.04,ESE,103,0.0,4.0,73,0.00,,,0.00,Wunderground v.1.15,2013-05-17 19:03:00,
2013-05-17 15:08:00,71.6,62.1,30.03,ESE,103,0.0,4.0,72,0.00,,,0.00,Wunderground v.1.15,2013-05-17 19:08:00,
2013-05-17 15:13:00,71.8,62.3,30.03,ESE,103,0.0,0.0,72,0.00,,,0.00,Wunderground v.1.15,2013-05-17 19:13:00,
2013-05-17 15:18:00,71.8,61.9,30.03,ESE,103,0.0,6.0,71,0.00,,,0.00,Wunderground v.1.15,2013-05-17 19:18:00,
2013-05-17 15:23:00,71.6,61.7,30.03,ESE,103,0.0,1.0,71,0.00,,,0.00,Wunderground v.1.15,2013-05-17 19:23:00,
2013-05-17 15:28:00,71.8,62.7,30.03,ESE,103,0.0,1.0,73,0.00,,,0.00,Wunderground v.1.15,2013-05-17 19:28:00,
2013-05-17 15:33:00,71.8,61.5,30.03,ESE,103,0.0,1.0,70,0.00,,,0.00,Wunderground v.1.15,2013-05-17 19:33:00,
2013-05-17 15:38:00,71.8,61.9,30.02,ESE,103,0.0,1.0,71,0.00,,,0.00,Wunderground v.1.15,2013-05-17 19:38:00,
2013-05-17 15:43:00,71.8,62.7,30.02,ESE,103,1.0,1.0,73,0.00,,,0.00,Wunderground v.1.15,2013-05-17 19:43:00,
2013-05-17 15:48:00,72.0,63.3,30.02,ESE,103,0.0,1.0,74,0.00,,,0.00,Wunderground v.1.15,2013-05-17 19:48:00,
2013-05-17 15:53:00,72.1,63.0,30.02,ESE,103,0.0,1.0,73,0.00,,,0.00,Wunderground v.1.15,2013-05-17 19:53:00,
2013-05-17 15:58:00,72.3,63.5,30.02,ESE,103,0.0,1.0,74,0.00,,,0.00,Wunderground v.1.15,2013-05-17 19:58:00,
2013-05-17 16:03:00,72.5,63.4,30.02,ESE,103,0.0,0.0,73,0.00,,,0.00,Wunderground v.1.15,2013-05-17 20:03:00,
2013-05-17 16:08:00,72.7,62.8,30.02,ESE,103,0.0,0.0,71,0.00,,,0.00,Wunderground v.1.15,2013-05-17 20:08:00,
2013-05-17 16:13:00,72.7,63.1,30.02,ESE,103,0.0,1.0,72,0.00,,,0.00,Wunderground v.1.15,2013-05-17 20:13:00,
2013-05-17 16:18:00,72.8,63.2,30.02,ESE,103,0.0,1.0,72,0.00,,,0.00,Wunderground v.1.15,2013-05-17 20:18:00,
2013-05-17 16:23:00,72.8,63.2,30.01,ESE,103,0.0,0.0,72,0.00,,,0.00,Wunderground v.1.15,2013-05-17 20:23:00,
2013-05-17 16:28:00,72.8,62.8,30.01,ESE,103,0.0,3.0,71,0.00,,,0.00,Wunderground v.1.15,2013-05-17 20:28:00,
2013-05-17 16:33:00,72.7,63.1,30.01,ESE,103,2.0,5.0,72,0.00,,,0.00,Wunderground v.1.15,2013-05-17 20:33:00,
2013-05-17 16:38:00,72.5,63.0,30.01,ESE,103,0.0,5.0,72,0.00,,,0.00,Wunderground v.1.15,2013-05-17 20:38:00,
2013-05-17 16:43:00,72.3,62.8,30.01,ESE,103,0.0,1.0,72,0.00,,,0.00,Wunderground v.1.15,2013-05-17 20:43:00,
2013-05-17 16:48:00,72.5,64.1,30.01,ESE,103,0.0,1.0,75,0.00,,,0.00,Wunderground v.1.15,2013-05-17 20:48:00,
2013-05-17 16:53:00,72.5,63.0,30.00,ESE,103,2.0,2.0,72,0.00,,,0.00,Wunderground v.1.15,2013-05-17 20:53:00,
2013-05-17 16:58:00,72.3,63.2,30.00,ESE,103,0.0,3.0,73,0.00,,,0.00,Wunderground v.1.15,2013-05-17 20:58:00,
2013-05-17 17:03:00,72.5,64.1,30.00,ESE,103,1.0,1.0,75,0.00,,,0.00,Wunderground v.1.15,2013-05-17 21:03:00,
2013-05-17 17:08:00,72.5,63.0,30.00,ESE,103,0.0,1.0,72,0.00,,,0.00,Wunderground v.1.15,2013-05-17 21:08:00,
2013-05-17 17:13:00,72.3,63.2,30.00,ESE,103,0.0,0.0,73,0.00,,,0.00,Wunderground v.1.15,2013-05-17 21:13:00,
2013-05-17 17:18:00,72.1,63.7,30.00,ESE,103,0.0,1.0,75,0.00,,,0.00,Wunderground v.1.15,2013-05-17 21:18:00,
2013-05-17 17:23:00,72.3,64.3,30.00,ESE,103,1.0,1.0,76,0.00,,,0.00,Wunderground v.1.15,2013-05-17 21:23:00,
2013-05-17 17:28:00,72.1,63.4,30.00,ESE,103,0.0,5.0,74,0.00,,,0.00,Wunderground v.1.15,2013-05-17 21:28:00,
2013-05-17 17:33:00,72.1,61.4,30.00,ESE,104,0.0,6.0,69,0.00,,,0.00,Wunderground v.1.15,2013-05-17 21:33:00,
2013-05-17 17:38:00,72.1,61.8,30.00,ESE,104,0.0,6.0,70,0.00,,,0.00,Wunderground v.1.15,2013-05-17 21:38:00,
2013-05-17 17:43:00,72.1,61.4,30.00,ESE,104,0.0,2.0,69,0.00,,,0.00,Wunderground v.1.15,2013-05-17 21:43:00,
2013-05-17 17:48:00,72.1,61.4,30.00,ESE,104,0.0,2.0,69,0.00,,,0.00,Wunderground v.1.15,2013-05-17 21:48:00,
2013-05-17 17:53:00,72.1,62.2,30.00,ESE,104,0.0,1.0,71,0.00,,,0.00,Wunderground v.1.15,2013-05-17 21:53:00,
2013-05-17 17:58:00,72.1,62.6,30.00,ESE,104,0.0,1.0,72,0.00,,,0.00,Wunderground v.1.15,2013-05-17 21:58:00,
2013-05-17 18:03:00,72.1,63.0,30.00,ESE,104,0.0,0.0,73,0.00,,,0.00,Wunderground v.1.15,2013-05-17 22:03:00,
2013-05-17 18:08:00,72.0,62.5,30.00,ESE,104,0.0,0.0,72,0.00,,,0.00,Wunderground v.1.15,2013-05-17 22:08:00,
2013-05-17 18:13:00,71.8,61.9,30.00,ESE,104,0.0,0.0,71,0.00,,,0.00,Wunderground v.1.15,2013-05-17 22:13:00,
2013-05-17 18:18:00,71.6,62.1,30.00,ESE,104,0.0,1.0,72,0.00,,,0.00,Wunderground v.1.15,2013-05-17 22:18:00,
2013-05-17 18:23:00,71.5,61.6,30.00,ESE,104,0.0,0.0,71,0.00,,,0.00,Wunderground v.1.15,2013-05-17 22:23:00,
2013-05-17 18:28:00,71.3,61.8,30.00,ESE,104,0.0,0.0,72,0.00,,,0.00,Wunderground v.1.15,2013-05-17 22:28:00,
2013-05-17 18:33:00,71.3,61.8,30.00,ESE,104,0.0,1.0,72,0.00,,,0.00,Wunderground v.1.15,2013-05-17 22:33:00,
2013-05-17 18:38:00,71.1,62.0,30.00,ESE,104,0.0,1.0,73,0.00,,,0.00,Wunderground v.1.15,2013-05-17 22:38:00,
2013-05-17 18:43:00,70.9,61.8,30.00,ESE,104,0.0,0.0,73,0.00,,,0.00,Wunderground v.1.15,2013-05-17 22:43:00,
2013-05-17 18:48:00,70.9,62.2,30.00,ESE,104,0.0,0.0,74,0.00,,,0.00,Wunderground v.1.15,2013-05-17 22:48:00,
2013-05-17 18:53:00,70.8,62.5,30.00,ESE,104,0.0,0.0,75,0.00,,,0.00,Wunderground v.1.15,2013-05-17 22:53:00,
2013-05-17 18:58:00,70.4,62.8,30.00,ESE,104,0.0,0.0,77,0.00,,,0.00,Wunderground v.1.15,2013-05-17 22:58:00,
2013-05-17 19:03:00,70.1,62.6,30.00,ESE,104,0.0,0.0,77,0.00,,,0.00,Wunderground v.1.15,2013-05-17 23:03:00,
2013-05-17 19:08:00,69.9,62.4,30.00,ESE,104,0.0,0.0,77,0.00,,,0.00,Wunderground v.1.15,2013-05-17 23:08:00,
2013-05-17 19:13:00,69.8,63.3,30.00,ESE,104,0.0,0.0,80,0.00,,,0.00,Wunderground v.1.15,2013-05-17 23:13:00,
2013-05-17 19:18:00,69.6,63.2,30.00,ESE,104,0.0,1.0,80,0.00,,,0.00,Wunderground v.1.15,2013-05-17 23:18:00,
2013-05-17 19:23:00,69.3,62.9,30.00,ESE,104,0.0,1.0,80,0.00,,,0.00,Wunderground v.1.15,2013-05-17 23:23:00,
2013-05-17 19:28:00,69.3,63.2,30.00,ESE,104,0.0,1.0,81,0.00,,,0.00,Wunderground v.1.15,2013-05-17 23:28:00,
2013-05-17 19:33:00,69.1,62.7,30.00,ESE,104,0.0,0.0,80,0.00,,,0.00,Wunderground v.1.15,2013-05-17 23:33:00,
2013-05-17 19:38:00,68.9,62.5,30.01,ESE,104,0.0,1.0,80,0.00,,,0.00,Wunderground v.1.15,2013-05-17 23:38:00,
2013-05-17 19:43:00,68.8,62.0,30.01,ESE,104,0.0,1.0,79,0.00,,,0.00,Wunderground v.1.15,2013-05-17 23:43:00,
2013-05-17 19:48:00,68.6,62.2,30.01,ESE,104,0.0,1.0,80,0.00,,,0.00,Wunderground v.1.15,2013-05-17 23:48:00,
2013-05-17 19:53:00,68.4,62.3,30.01,ESE,104,0.0,1.0,81,0.00,,,0.00,Wunderground v.1.15,2013-05-17 23:53:00,
2013-05-17 19:58:00,68.1,62.7,30.01,ESE,104,0.0,1.0,83,0.00,,,0.00,Wunderground v.1.15,2013-05-17 23:58:00,
2013-05-17 20:03:00,67.8,62.4,30.01,ESE,104,0.0,1.0,83,0.00,,,0.00,Wunderground v.1.15,2013-05-18 00:03:00,
2013-05-17 20:08:00,67.6,62.9,30.01,ESE,104,0.0,1.0,85,0.00,,,0.00,Wunderground v.1.15,2013-05-18 00:08:00,
2013-05-17 20:13:00,67.3,62.3,30.01,ESE,104,0.0,0.0,84,0.00,,,0.00,Wunderground v.1.15,2013-05-18 00:13:00,
2013-05-17 20:18:00,67.1,62.1,30.01,ESE,104,0.0,0.0,84,0.00,,,0.00,Wunderground v.1.15,2013-05-18 00:18:00,
2013-05-17 20:23:00,66.9,62.2,30.01,ESE,104,0.0,0.0,85,0.00,,,0.00,Wunderground v.1.15,2013-05-18 00:23:00,
2013-05-17 20:28:00,66.8,61.8,30.01,ESE,104,0.0,0.0,84,0.00,,,0.00,Wunderground v.1.15,2013-05-18 00:28:00,
2013-05-17 20:33:00,66.8,62.1,30.01,ESE,104,0.0,0.0,85,0.00,,,0.00,Wunderground v.1.15,2013-05-18 00:33:00,
2013-05-17 20:38:00,66.6,61.6,30.01,ESE,104,0.0,2.0,84,0.00,,,0.00,Wunderground v.1.15,2013-05-18 00:38:00,
2013-05-17 20:43:00,66.6,61.3,30.01,ESE,104,0.0,0.0,83,0.00,,,0.00,Wunderground v.1.15,2013-05-18 00:43:00,
2013-05-17 20:48:00,66.6,61.3,30.01,ESE,104,0.0,3.0,83,0.00,,,0.00,Wunderground v.1.15,2013-05-18 00:48:00,
2013-05-17 20:53:00,66.6,61.6,30.01,ESE,104,0.0,0.0,84,0.00,,,0.00,Wunderground v.1.15,2013-05-18 00:53:00,
2013-05-17 20:58:00,66.4,61.4,30.01,ESE,104,0.0,2.0,84,0.00,,,0.00,Wunderground v.1.15,2013-05-18 00:58:00,
2013-05-17 21:03:00,66.3,61.7,30.01,ESE,104,0.0,1.0,85,0.00,,,0.00,Wunderground v.1.15,2013-05-18 01:03:00,
2013-05-17 21:08:00,66.1,61.5,30.01,ESE,104,2.0,2.0,85,0.00,,,0.00,Wunderground v.1.15,2013-05-18 01:08:00,
2013-05-17 21:13:00,65.8,60.8,30.01,ESE,104,0.0,3.0,84,0.00,,,0.00,Wunderground v.1.15,2013-05-18 01:13:00,
2013-05-17 21:18:00,65.6,61.0,30.01,ESE,104,0.0,3.0,85,0.00,,,0.00,Wunderground v.1.15,2013-05-18 01:18:00,
2013-05-17 21:23:00,65.5,60.9,30.02,ESE,104,0.0,2.0,85,0.00,,,0.00,Wunderground v.1.15,2013-05-18 01:23:00,
2013-05-17 21:28:00,65.3,61.3,30.02,ESE,104,0.0,2.0,87,0.00,,,0.00,Wunderground v.1.15,2013-05-18 01:28:00,
2013-05-17 21:33:00,65.2,61.6,30.02,ESE,104,0.0,1.0,88,0.00,,,0.00,Wunderground v.1.15,2013-05-18 01:33:00,
2013-05-17 21:38:00,64.8,61.2,30.02,ESE,104,0.0,1.0,88,0.00,,,0.00,Wunderground v.1.15,2013-05-18 01:38:00,
2013-05-17 21:43:00,64.5,60.9,30.02,ESE,104,0.0,1.0,88,0.00,,,0.00,Wunderground v.1.15,2013-05-18 01:43:00,
2013-05-17 21:48:00,64.2,60.9,30.02,ESE,104,0.0,1.0,89,0.00,,,0.00,Wunderground v.1.15,2013-05-18 01:48:00,
2013-05-17 21:53:00,64.0,60.7,30.02,ESE,104,0.0,1.0,89,0.00,,,0.00,Wunderground v.1.15,2013-05-18 01:53:00,
2013-05-17 21:58:00,63.9,60.9,30.02,ESE,104,0.0,1.0,90,0.00,,,0.01,Wunderground v.1.15,2013-05-18 01:58:00,
2013-05-17 22:03:00,63.7,60.7,30.02,ESE,104,0.0,0.0,90,0.00,,,0.01,Wunderground v.1.15,2013-05-18 02:03:00,
2013-05-17 22:08:00,63.5,60.5,30.03,ESE,104,0.0,2.0,90,0.00,,,0.01,Wunderground v.1.15,2013-05-18 02:08:00,
2013-05-17 22:13:00,63.2,60.2,30.03,ESE,104,0.0,0.0,90,0.00,,,0.01,Wunderground v.1.15,2013-05-18 02:13:00,
2013-05-17 22:18:00,63.2,60.5,30.03,ESE,104,0.0,1.0,91,0.00,,,0.01,Wunderground v.1.15,2013-05-18 02:18:00,
2013-05-17 22:23:00,63.1,60.4,30.03,ESE,104,0.0,2.0,91,0.00,,,0.01,Wunderground v.1.15,2013-05-18 02:23:00,
2013-05-17 22:28:00,63.1,60.7,30.03,ESE,104,0.0,2.0,92,0.00,,,0.01,Wunderground v.1.15,2013-05-18 02:28:00,
2013-05-17 22:33:00,62.9,60.5,30.03,ESE,104,0.0,1.0,92,0.00,,,0.01,Wunderground v.1.15,2013-05-18 02:33:00,
2013-05-17 22:38:00,62.9,60.5,30.03,ESE,104,1.0,4.0,92,0.00,,,0.01,Wunderground v.1.15,2013-05-18 02:38:00,
2013-05-17 22:43:00,62.9,60.8,30.03,North,356,0.0,4.0,93,0.00,,,0.01,Wunderground v.1.15,2013-05-18 02:43:00,
2013-05-17 22:48:00,62.7,60.3,30.03,ENE,65,1.0,4.0,92,0.00,,,0.01,Wunderground v.1.15,2013-05-18 02:48:00,
2013-05-17 22:53:00,62.6,60.2,30.04,ENE,65,0.0,4.0,92,0.00,,,0.01,Wunderground v.1.15,2013-05-18 02:53:00,
2013-05-17 22:58:00,62.7,60.3,30.04,ENE,65,0.0,4.0,92,0.00,,,0.01,Wunderground v.1.15,2013-05-18 02:58:00,
2013-05-17 23:03:00,62.7,60.3,30.04,ENE,65,0.0,1.0,92,0.00,,,0.01,Wunderground v.1.15,2013-05-18 03:03:00,
2013-05-17 23:08:00,62.7,60.6,30.04,ENE,65,0.0,1.0,93,0.00,,,0.01,Wunderground v.1.15,2013-05-18 03:08:00,
2013-05-17 23:13:00,62.7,60.6,30.04,ENE,65,0.0,0.0,93,0.00,,,0.01,Wunderground v.1.15,2013-05-18 03:13:00,
2013-05-17 23:18:00,62.9,61.1,30.04,ENE,65,0.0,2.0,94,0.00,,,0.01,Wunderground v.1.15,2013-05-18 03:18:00,
2013-05-17 23:23:00,63.1,61.6,30.04,ENE,65,0.0,5.0,95,0.00,,,0.01,Wunderground v.1.15,2013-05-18 03:23:00,
2013-05-17 23:28:00,63.2,61.7,30.04,ENE,66,0.0,5.0,95,0.00,,,0.01,Wunderground v.1.15,2013-05-18 03:28:00,
2013-05-17 23:33:00,63.2,61.7,30.04,ENE,65,0.0,1.0,95,0.00,,,0.01,Wunderground v.1.15,2013-05-18 03:33:00,
2013-05-17 23:38:00,63.2,62.0,30.04,ENE,65,0.0,3.0,96,0.00,,,0.01,Wunderground v.1.15,2013-05-18 03:38:00,
2013-05-17 23:43:00,63.2,62.0,30.04,ENE,65,0.0,3.0,96,0.00,,,0.01,Wunderground v.1.15,2013-05-18 03:43:00,
2013-05-17 23:48:00,63.1,61.9,30.04,ENE,70,3.0,6.0,96,0.00,,,0.01,Wunderground v.1.15,2013-05-18 03:48:00,
2013-05-17 23:53:00,62.9,61.7,30.04,ESE,102,1.0,5.0,96,0.00,,,0.01,Wunderground v.1.15,2013-05-18 03:53:00,
2013-05-17 23:58:00,62.7,61.2,30.04,East,96,0.0,5.0,95,0.00,,,0.01,Wunderground v.1.15,2013-05-18 03:58:00,